Weather History for Beaver Island, MI

Change the Weather History Date:

Sunday, January 20, 2013

  Actual Average Record
Temperature  
Mean Temperature 16 °F -  
Max Temperature 22 °F 28 °F 45 °F (1953)
Min Temperature 11 °F 15 °F -5 °F (2005)
Degree Days  
Heating Degree Days 48    
Moisture  
Dew Point 6 °F    
Average Humidity 69    
Maximum Humidity 85    
Minimum Humidity 57    
Precipitation  
Precipitation 0.00 in - - ()
Sea Level Pressure  
Sea Level Pressure 29.97 in    
Wind  
Wind Speed 16 mph (WNW)    
Max Wind Speed 24 mph    
Max Gust Speed 39 mph    
Visibility 9 miles    
Events Snow    
Averages and records for this station are not official NWS values.
T = Trace of Precipitation, MM = Missing Value Source: NWS Daily Summary

Daily Weather History Graph

Daily Weather History Graph

Search for Another Location

Airport:

Trip Planner

Search our weather history database for the weather conditions in past years. The results will help you decide how hot, cold, wet, or windy it might be!

Date:

Astronomy

Jan. 20, 2013 Rise Set
Actual Time 8:15 AM EST 5:31 PM EST
Civil Twilight 7:42 AM EST 6:04 PM EST
Nautical Twilight 7:06 AM EST 6:40 PM EST
Astronomical Twilight 6:30 AM EST 7:16 PM EST
Moon 12:33 PM EST (1/20) 2:45 AM EST (1/20)
Length of Visible Light 10h 21m
Length of Day
9h 16m
Waxing Gibbous, 66% of the Moon is Illuminated
Jan 20
Waxing Gibbous
Jan 26
Full
Feb 3
Last Quarter
Feb 10
New
Feb 17
First Quarter

Hourly Weather History & Observations

Time (EST) Temp. Windchill Dew Point Humidity Pressure Visibility Wind Dir Wind Speed Gust Speed Precip Events Conditions
12:16 AM 22.6 °F 8.3 °F 16.9 °F 79% 29.49 in 10.0 mi West 18.4 mph 33.4 mph N/A   Overcast
12:35 AM 22.6 °F 7.5 °F 17.2 °F 80% 29.49 in 10.0 mi West 20.7 mph 35.7 mph N/A   Overcast
12:55 AM 22.1 °F 5.7 °F 17.1 °F 81% 29.51 in 10.0 mi West 24.2 mph 35.7 mph N/A   Overcast
1:15 AM 21.2 °F 4.9 °F 16.7 °F 83% 29.52 in 10.0 mi West 23.0 mph 35.7 mph N/A   Overcast
1:35 AM 21.2 °F 6.4 °F 17.4 °F 85% 29.55 in 5.0 mi West 18.4 mph 33.4 mph N/A Snow Light Snow
1:55 AM 21.2 °F 7.3 °F 15.8 °F 80% 29.57 in 10.0 mi WNW 16.1 mph 39.1 mph N/A Snow Light Snow
3:55 AM 17.2 °F 1.7 °F 11.5 °F 78% 29.72 in 4.0 mi NW 17.3 mph 31.1 mph N/A Snow Light Snow
4:15 AM 16.7 °F -0.3 °F 10.9 °F 78% 29.73 in 4.0 mi NW 20.7 mph 38.0 mph N/A Snow Light Snow
4:35 AM 16.0 °F -0.9 °F 9.1 °F 74% 29.76 in 10.0 mi NW 19.6 mph 34.5 mph N/A Snow Light Snow
4:56 AM 15.8 °F -0.6 °F 9.3 °F 76% 29.78 in 10.0 mi NW 18.4 mph 33.4 mph N/A   Overcast
5:15 AM 15.6 °F -0.4 °F 9.3 °F 76% 29.80 in 10.0 mi NNW 17.3 mph 33.4 mph N/A   Overcast
5:35 AM 16.0 °F -0.4 °F 10.2 °F 78% 29.82 in 10.0 mi NW 18.4 mph 28.8 mph N/A   Overcast
5:56 AM 15.8 °F -1.1 °F 8.4 °F 73% 29.83 in 10.0 mi NW 19.6 mph 39.1 mph N/A   Overcast
6:15 AM 15.6 °F -2.9 °F 8.1 °F 72% 29.86 in 10.0 mi NW 24.2 mph 35.7 mph N/A   Mostly Cloudy
6:35 AM 14.9 °F -2.3 °F 7.9 °F 74% 29.87 in 10.0 mi NW 19.6 mph 28.8 mph N/A   Overcast
7:15 AM 14.4 °F -2.5 °F 7.0 °F 73% 29.90 in 10.0 mi NNW 18.4 mph 32.2 mph N/A   Overcast
7:35 AM 14.4 °F -4.2 °F 7.2 °F 73% 29.92 in 10.0 mi NW 23.0 mph 32.2 mph N/A   Mostly Cloudy
8:15 AM 13.8 °F -1.1 °F 6.8 °F 74% 29.95 in 7.0 mi WNW 13.8 mph 31.1 mph N/A   Overcast
8:36 AM 14.4 °F 0.2 °F 7.3 °F 74% 29.98 in 10.0 mi NW 12.7 mph 25.3 mph N/A   Overcast
8:55 AM 14.4 °F -1.5 °F 7.2 °F 73% 29.99 in 10.0 mi NW 16.1 mph 26.5 mph N/A   Overcast
9:15 AM 13.8 °F -2.7 °F 7.7 °F 77% 30.00 in 1.5 mi NW 17.3 mph 23.0 mph N/A Snow Light Snow
9:36 AM 14.0 °F -2.0 °F 9.5 °F 82% 30.01 in 1.0 mi WNW 16.1 mph 20.7 mph N/A Snow Light Snow
10:36 AM 14.0 °F -2.0 °F 7.9 °F 77% 30.05 in 1.2 mi West 16.1 mph 23.0 mph N/A Snow Light Snow
10:55 AM 13.6 °F -2.4 °F 8.2 °F 79% 30.06 in 1.8 mi WNW 16.1 mph 23.0 mph N/A Snow Light Snow
11:15 AM 13.5 °F -3.2 °F 8.2 °F 80% 30.06 in 1.5 mi West 17.3 mph 26.5 mph N/A Snow Light Snow
11:35 AM 13.6 °F 0.0 °F 7.9 °F 78% 30.07 in 4.0 mi West 11.5 mph 21.9 mph N/A   Haze
11:55 AM 13.6 °F -3.0 °F 7.7 °F 77% 30.06 in 5.0 mi West 17.3 mph 23.0 mph N/A   Haze
12:15 PM 13.6 °F -1.3 °F 6.6 °F 74% 30.06 in 10.0 mi West 13.8 mph 24.2 mph N/A   Mostly Cloudy
12:35 PM 13.6 °F -0.7 °F 6.4 °F 73% 30.06 in 7.0 mi West 12.7 mph 23.0 mph N/A   Overcast
1:15 PM 13.8 °F -1.1 °F 4.5 °F 66% 30.07 in 10.0 mi West 13.8 mph 23.0 mph N/A   Mostly Cloudy
1:35 PM 13.8 °F -1.1 °F 4.5 °F 66% 30.07 in 10.0 mi West 13.8 mph 24.2 mph N/A   Mostly Cloudy
1:55 PM 14.2 °F -1.7 °F 4.1 °F 64% 30.07 in 10.0 mi West 16.1 mph 23.0 mph N/A   Mostly Cloudy
2:15 PM 13.6 °F -1.3 °F 4.3 °F 66% 30.07 in 10.0 mi WNW 13.8 mph 18.4 mph N/A   Overcast
2:35 PM 13.6 °F -3.0 °F 3.7 °F 65% 30.08 in 10.0 mi West 17.3 mph 24.2 mph N/A   Mostly Cloudy
2:55 PM 13.6 °F 0.0 °F 3.9 °F 65% 30.08 in 10.0 mi West 11.5 mph 21.9 mph N/A   Mostly Cloudy
3:36 PM 13.3 °F -1.8 °F 2.7 °F 63% 30.09 in 10.0 mi West 13.8 mph 23.0 mph N/A   Mostly Cloudy
3:55 PM 13.6 °F 0.0 °F 3.4 °F 64% 30.09 in 10.0 mi WNW 11.5 mph 18.4 mph N/A   Mostly Cloudy
4:15 PM 13.5 °F 0.5 °F 2.3 °F 61% 30.10 in 10.0 mi WNW 10.4 mph 24.2 mph N/A   Mostly Cloudy
5:15 PM 13.1 °F -0.7 °F 2.3 °F 62% 30.10 in 10.0 mi West 11.5 mph 19.6 mph N/A   Overcast
5:36 PM 13.1 °F 0.9 °F 1.4 °F 60% 30.11 in 10.0 mi West 9.2 mph 19.6 mph N/A   Overcast
5:55 PM 12.7 °F -0.4 °F 1.4 °F 61% 30.11 in 10.0 mi WNW 10.4 mph 18.4 mph N/A   Overcast
6:15 PM 12.6 °F 0.2 °F 1.6 °F 62% 30.10 in 10.0 mi West 9.2 mph 18.4 mph N/A   Overcast
6:35 PM 12.2 °F -1.0 °F 1.6 °F 63% 30.11 in 10.0 mi WNW 10.4 mph 20.7 mph N/A   Overcast
6:55 PM 12.2 °F -2.5 °F 1.4 °F 62% 30.11 in 10.0 mi WNW 12.7 mph 18.4 mph N/A   Overcast
7:16 PM 12.2 °F -0.2 °F 0.3 °F 59% 30.11 in 10.0 mi WNW 9.2 mph 18.4 mph N/A   Overcast
7:35 PM 12.2 °F -1.0 °F 0.5 °F 60% 30.11 in 10.0 mi WNW 10.4 mph 17.3 mph N/A   Overcast
7:55 PM 12.2 °F -1.0 °F -0.4 °F 57% 30.11 in 10.0 mi West 10.4 mph 18.4 mph N/A   Overcast
8:16 PM 12.2 °F -1.0 °F -0.2 °F 58% 30.11 in 10.0 mi West 10.4 mph 18.4 mph N/A   Overcast
8:35 PM 12.2 °F -0.2 °F 0.3 °F 59% 30.10 in 10.0 mi WNW 9.2 mph - N/A   Overcast
8:55 PM 12.0 °F -0.4 °F 0.3 °F 59% 30.10 in 10.0 mi West 9.2 mph 19.6 mph N/A   Overcast
9:15 PM 12.2 °F -1.0 °F -0.2 °F 58% 30.10 in 10.0 mi West 10.4 mph - N/A   Overcast
9:35 PM 12.2 °F -0.2 °F 0.1 °F 59% 30.09 in 10.0 mi West 9.2 mph 16.1 mph N/A   Overcast
9:56 PM 12.0 °F 0.5 °F 0.1 °F 59% 30.08 in 10.0 mi WNW 8.1 mph - N/A   Overcast
10:15 PM 11.8 °F -1.5 °F -0.4 °F 58% 30.08 in 10.0 mi West 10.4 mph 17.3 mph N/A   Mostly Cloudy
10:35 PM 11.3 °F -1.3 °F -1.3 °F 57% 30.08 in 10.0 mi West 9.2 mph - N/A   Mostly Cloudy
10:56 PM 11.8 °F -0.7 °F -0.0 °F 59% 30.07 in 10.0 mi WNW 9.2 mph - N/A   Mostly Cloudy
11:15 PM 11.8 °F 1.3 °F 0.1 °F 59% 30.06 in 10.0 mi West 6.9 mph - N/A   Overcast
11:35 PM 11.8 °F -0.7 °F 1.8 °F 64% 30.05 in 10.0 mi West 9.2 mph - N/A   Overcast
11:56 PM 11.7 °F -1.7 °F 2.1 °F 66% 30.05 in 10.0 mi West 10.4 mph - N/A   Overcast